WFOV (USA 332)

Last updated on Thu Nov 21 2024 00:02:44 GMT+0000 (Coordinated Universal Time)

1 52940U 22073A 24325.56640653 -.00000361 00000+0 00000+0 0 9994 2 52940 2.2301 86.0243 0001565 104.4349 192.8214 1.00272887 8612
UTC large
Height (km)
Speed (km/s)
/
Latitude / Longitude
Inclination (degrees)
Orbital Period (minutes)
Azimuth
Elevation
Range (km)
Doppler Factor

Next 0 passes for location: London (51.5072 / 0.1276)

Sorry there are no passes over London.